Location: Misciano
(43.5000°N, 11.9500°E)
Time: 16:34:44
(UTC+00:00)

Lacrosse 5 - Pass Details

Date: 13 August 2020
Orbit: 717 x 720 km, 57.0° (Epoch: 18 September)

Event Time Altitude Azimuth Distance (km) Brightness Sun altitude
Rises 22:20:58 0° 296° (WNW) 3,126 5.7 -30.8°
Reaches altitude 10° 22:24:32 10° 271° (W) 2,201 4.5 -31.0°
Enters shadow 22:24:47 11° 268° (W) 2,155 4.4 -31.0°
